FW8254 Weather Reports


time (UTC)temp
F
wind
direction
speed
knots
gust
knots
rain 1hr
in
rain 24hr
in
rain mn
in
humidity
%
barometer
mb
20260504173837 73 292 3.5 5.2 0.00 0.00 0.00 38 1012.2
20260504173334 73 285 4.3 7.0 0.00 0.00 0.00 35 1012.4
20260504172831 73 62 0.9 1.7 0.00 0.00 0.00 35 1012.6
20260504172328 73 11 1.7 1.7 0.00 0.00 0.00 37 1012.4
20260504171824 72 25 0.9 0.9 0.00 0.00 0.00 36 1012.3
20260504171321 72 279 4.3 5.2 0.00 0.00 0.00 40 1012.7
20260504170818 72 297 2.6 2.6 0.00 0.00 0.00 38 1012.6
20260504170315 71 285 2.6 6.1 0.00 0.00 0.00 37 1012.4
20260504160233 70 333 2.6 4.3 0.00 0.00 0.00 44 1013.3
20260504150659 68 297 4.3 5.2 0.00 0.00 0.00 45 1013.7
20260504150155 67 281 5.2 5.2 0.00 0.00 0.00 46 1013.8
20260504141124 65 301 7.8 9.6 0.00 0.00 0.00 55 1013.9
20260504140621 64 310 3.5 6.1 0.00 0.00 0.00 57 1013.8
20260504140117 64 292 2.6 4.3 0.00 0.00 0.00 57 1014.2
20260504130545 57 8 1.7 4.3 0.00 0.00 0.00 70 1013.9
20260504110433 48 53 0.0 0.0 0.00 0.00 0.00 91 1013.9
20260504100349 48 52 0.0 0.0 0.00 0.00 0.00 89 1013.5
20260504081742 48 52 0.0 0.0 0.00 0.00 0.00 86 1013.2
20260504081239 48 52 0.0 0.0 0.00 0.00 0.00 87 1013.2
20260504080735 48 52 0.0 0.0 0.00 0.00 0.00 87 1013.1
20260504080232 48 52 0.0 0.0 0.00 0.00 0.00 87 1013.2
20260504070159 48 52 0.0 0.0 0.00 0.00 0.00 90 1013.2
20260504060120 51 44 0.0 0.0 0.00 0.00 0.00 89 1013.2
20260504050548 52 41 0.0 0.0 0.00 0.00 0.00 88 1013.3
20260504045542 52 41 0.0 0.9 0.00 0.00 0.00 88 1013.5
20260504045037 52 41 0.0 0.0 0.00 0.00 0.00 88 1013.4
20260504044535 52 41 0.0 0.0 0.00 0.00 0.00 88 1013.3
20260504044032 52 41 0.0 0.0 0.00 0.00 0.00 88 1013.5
20260504043529 53 41 0.0 0.0 0.00 0.00 0.00 88 1013.5
20260504043026 53 41 0.0 0.0 0.00 0.00 0.00 88 1013.5
20260504042523 53 41 0.0 0.0 0.00 0.00 0.00 88 1013.3
20260504042020 53 41 0.0 0.0 0.00 0.00 0.00 88 1013.3
20260504041516 53 41 0.0 0.0 0.00 0.00 0.00 87 1013.4
20260504041012 54 41 0.0 0.0 0.00 0.00 0.00 87 1013.4
20260504040510 54 41 0.0 0.0 0.00 0.00 0.00 87 1013.2
20260504040006 54 41 0.0 0.0 0.00 0.01 0.01 87 1013.3
20260504035503 54 41 0.0 0.0 0.00 0.01 0.01 87 1013.4
20260504034959 54 41 0.0 0.0 0.00 0.01 0.01 87 1013.2
20260504034457 54 41 0.0 0.0 0.00 0.01 0.01 87 1013.4
20260504033954 54 41 0.0 0.0 0.00 0.01 0.01 86 1013.3
20260504033452 54 41 0.0 0.0 0.00 0.01 0.01 86 1013.2
20260504032949 55 41 0.0 0.0 0.00 0.01 0.01 86 1013.5
20260504032446 55 41 0.0 0.0 0.00 0.01 0.01 86 1013.1
20260504031942 55 41 0.0 0.0 0.00 0.01 0.01 86 1013.3
20260504031439 55 41 0.0 0.0 0.00 0.01 0.01 86 1013.1
20260504030936 55 41 0.0 0.9 0.00 0.01 0.01 85 1013.3
20260504030433 55 41 0.0 0.0 0.00 0.01 0.01 85 1013.2
20260504025929 55 41 0.0 0.0 0.00 0.01 0.01 85 1013.4
20260504025426 55 41 0.0 0.0 0.00 0.01 0.01 84 1013.2
20260504024923 55 41 0.0 0.0 0.00 0.01 0.01 84 1013.4
20260504024420 56 41 0.0 0.0 0.00 0.01 0.01 84 1013.2
20260504023917 56 41 0.9 0.9 0.00 0.01 0.01 84 1013.0
20260504023413 56 41 0.0 0.0 0.00 0.01 0.01 83 1013.1
20260504022909 56 41 0.0 0.0 0.00 0.01 0.01 82 1013.2
20260504022406 56 41 0.0 0.0 0.00 0.01 0.01 82 1013.0
20260504021902 56 41 0.0 0.0 0.00 0.01 0.01 82 1012.9
20260504021400 57 41 0.0 0.0 0.00 0.01 0.01 81 1013.1
20260504020857 57 41 0.0 0.0 0.00 0.01 0.01 81 1012.9
20260504020353 57 41 0.0 0.0 0.00 0.01 0.01 81 1012.7
20260504015849 57 41 0.0 0.0 0.00 0.01 0.01 80 1012.9
20260504015346 57 41 0.0 0.0 0.00 0.01 0.01 79 1012.7
20260504014842 58 41 0.0 0.0 0.00 0.01 0.01 79 1012.8
20260504014338 58 41 0.0 0.0 0.00 0.01 0.01 79 1012.7
20260504013836 58 41 0.0 0.9 0.00 0.01 0.01 78 1012.6
20260504013333 59 40 0.9 0.9 0.00 0.01 0.01 77 1012.6
20260504012830 59 40 0.0 0.0 0.00 0.01 0.01 77 1012.6
20260504012328 59 40 0.0 0.9 0.00 0.01 0.01 75 1012.6
20260504011825 60 39 0.9 0.9 0.00 0.01 0.01 74 1012.4
20260504011321 60 29 0.0 0.0 0.00 0.01 0.01 73 1012.3
20260504010817 61 29 0.0 0.0 0.00 0.01 0.01 72 1012.2
20260504010313 61 29 0.0 0.0 0.00 0.01 0.01 70 1012.2
20260504005810 62 29 0.0 0.0 0.00 0.01 0.01 67 1012.1
20260504005307 62 29 0.0 0.0 0.00 0.01 0.01 63 1012.1
20260504004804 62 28 0.9 0.9 0.00 0.01 0.01 61 1012.0
20260504004302 62 28 0.0 0.0 0.00 0.01 0.01 57 1011.9
20260504003758 63 28 0.0 0.0 0.00 0.01 0.01 56 1011.9
20260504003255 63 27 0.0 0.0 0.00 0.01 0.01 56 1012.0
20260504002751 64 27 0.0 0.0 0.00 0.01 0.01 56 1011.7
20260504002249 64 27 0.0 0.0 0.00 0.01 0.01 53 1011.8
20260504001746 65 27 0.0 0.0 0.00 0.01 0.01 49 1011.9
20260504001243 66 27 0.0 0.0 0.00 0.01 0.01 48 1012.0
20260504000740 67 27 0.0 0.9 0.00 0.01 0.01 49 1011.9
20260504000237 67 18 0.9 1.7 0.00 0.01 0.01 48 1011.7
20260503235735 68 16 0.9 1.7 0.00 0.01 0.01 45 1011.9
20260503235232 68 348 1.7 2.6 0.00 0.01 0.01 44 1011.7
20260503234730 68 1 0.9 1.7 0.00 0.01 0.01 44 1011.6
20260503234228 68 351 1.7 2.6 0.00 0.01 0.01 42 1011.9
20260503233725 69 317 2.6 2.6 0.00 0.01 0.01 42 1011.6
20260503233220 69 354 1.7 2.6 0.00 0.01 0.01 44 1011.9
20260503232717 69 310 2.6 4.3 0.00 0.01 0.01 42 1011.8
20260503232214 69 317 2.6 2.6 0.00 0.01 0.01 44 1011.8
20260503231713 69 300 2.6 4.3 0.00 0.01 0.01 43 1011.6
20260503231209 69 298 3.5 4.3 0.00 0.01 0.01 44 1011.7
20260503230705 69 302 3.5 4.3 0.00 0.01 0.01 44 1012.0
20260503230202 69 299 4.3 6.1 0.00 0.01 0.01 40 1012.0
20260503225659 69 280 5.2 7.8 0.00 0.01 0.01 41 1011.8
20260503225154 69 279 5.2 7.8 0.00 0.01 0.01 39 1012.0
20260503224652 69 304 2.6 2.6 0.00 0.01 0.01 42 1011.8
20260503224149 69 337 1.7 2.6 0.00 0.01 0.01 43 1011.8
20260503223647 69 343 2.6 4.3 0.00 0.01 0.01 41 1012.0
20260503223143 69 270 3.5 6.1 0.00 0.01 0.01 42 1011.9
20260503222640 69 260 4.3 7.0 0.00 0.01 0.01 44 1011.9
20260503222138 69 341 2.6 2.6 0.00 0.01 0.01 42 1011.9
20260503221636 70 333 2.6 4.3 0.00 0.01 0.01 39 1011.9
20260503221133 69 329 2.6 6.1 0.00 0.01 0.01 42 1012.1
20260503220630 69 34 0.9 0.9 0.00 0.01 0.01 39 1011.9
20260503220127 69 29 0.0 1.7 0.00 0.01 0.01 38 1011.8
20260503215624 69 314 2.6 4.3 0.00 0.01 0.01 41 1012.0
20260503215120 69 346 1.7 4.3 0.00 0.01 0.01 38 1011.8
20260503214619 69 17 0.9 2.6 0.00 0.01 0.01 44 1012.0
20260503214114 68 277 5.2 6.1 0.00 0.01 0.01 43 1011.9
20260503213609 69 289 4.3 5.2 0.00 0.01 0.01 40 1011.9
20260503213104 69 27 0.9 0.9 0.00 0.01 0.01 38 1012.0
20260503212602 69 353 1.7 1.7 0.00 0.01 0.01 40 1012.0
20260503212059 68 284 6.1 7.0 0.00 0.01 0.01 44 1012.1
20260503211556 68 296 3.5 4.3 0.00 0.01 0.01 42 1012.3
20260503211051 69 309 2.6 4.3 0.00 0.01 0.01 41 1012.2
20260503210549 69 23 0.9 0.9 0.00 0.01 0.01 38 1012.2
20260503210044 68 318 2.6 5.2 0.00 0.01 0.01 43 1012.0
20260503205541 68 310 2.6 6.1 0.00 0.01 0.01 38 1012.2
20260503205038 68 316 2.6 5.2 0.00 0.01 0.01 36 1012.1
20260503204534 69 330 2.6 4.3 0.00 0.01 0.01 44 1012.1
20260503204031 69 19 2.6 4.3 0.00 0.01 0.01 40 1012.0
20260503203529 69 291 2.6 4.3 0.00 0.01 0.01 40 1012.3
20260503203026 69 4 1.7 2.6 0.00 0.01 0.01 43 1012.3
20260503202524 69 322 2.6 5.2 0.00 0.01 0.01 41 1012.5
20260503202021 68 298 3.5 4.3 0.00 0.01 0.01 44 1012.5
20260503201520 69 296 7.8 12.2 0.00 0.01 0.01 41 1012.7
20260503201016 69 349 0.9 1.7 0.00 0.01 0.01 43 1012.8
20260503200512 68 298 4.3 6.1 0.00 0.01 0.01 44 1013.1
20260503200009 68 14 2.6 2.6 0.00 0.01 0.01 40 1013.0
20260503195507 68 286 6.1 9.6 0.00 0.01 0.01 42 1013.2
20260503195003 68 331 3.5 5.2 0.00 0.01 0.01 41 1013.2
20260503194501 67 314 4.3 7.0 0.00 0.01 0.01 43 1013.2
20260503193955 67 295 3.5 5.2 0.00 0.01 0.01 43 1013.2
20260503193451 68 332 2.6 5.2 0.00 0.01 0.01 43 1013.5
20260503192947 68 28 0.0 2.6 0.00 0.01 0.01 42 1013.7
20260503192443 67 284 4.3 5.2 0.00 0.01 0.01 47 1013.8
20260503191939 68 328 2.6 5.2 0.00 0.01 0.01 42 1013.9
20260503191437 66 303 2.6 7.0 0.00 0.01 0.01 43 1013.9
20260503190933 67 248 4.3 5.2 0.00 0.01 0.01 42 1013.9
20260503190431 67 333 1.7 2.6 0.00 0.01 0.01 42 1013.9
20260503185927 68 323 1.7 2.6 0.00 0.01 0.01 42 1014.1
20260503185424 68 350 2.6 2.6 0.00 0.01 0.01 40 1014.3
20260503184923 67 67 1.7 2.6 0.00 0.01 0.01 42 1014.4
20260503184420 66 330 2.6 2.6 0.00 0.01 0.01 43 1014.4
20260503183916 66 288 3.5 5.2 0.00 0.01 0.01 44 1014.5
20260503183413 66 312 2.6 2.6 0.00 0.01 0.01 45 1014.5
20260503182910 65 324 2.6 7.0 0.00 0.01 0.01 48 1014.6
20260503182409 65 339 3.5 6.1 0.00 0.01 0.01 46 1014.6
20260503181906 65 358 1.7 2.6 0.00 0.01 0.01 43 1014.8
20260503181403 65 15 1.7 2.6 0.00 0.01 0.01 47 1014.9
20260503180859 66 23 0.9 1.7 0.00 0.01 0.01 48 1014.8
20260503180357 67 18 0.9 1.7 0.00 0.01 0.01 45 1014.8
20260503175853 65 32 0.9 1.7 0.00 0.01 0.01 45 1015.1
20260503175351 65 37 0.9 1.7 0.00 0.01 0.01 46 1015.1
20260503174847 64 27 0.0 0.9 0.00 0.01 0.01 48 1015.2
20260503174345 64 26 0.9 1.7 0.00 0.01 0.01 49 1015.2